1297987228576,1.62862
1297987288576,1.63409
1297987348576,1.63359
1297987408576,1.63077
1297987468576,1.62786
1297987528576,1.63340
1297987588576,1.64453
1297987648576,1.63340
1297987708576,1.61837
1297987768576,1.63246
1297987828576,1.63242
1297987888576,1.62278
1297987948576,1.62950
1297988008576,1.62722
1297988068576,1.62742
1297988128576,1.61490
1297988188576,1.63234
1297988248576,1.63464
1297988308576,1.63150
1297988368576,1.62727
1297988428576,1.62579
1297988488576,1.63629
1297988548576,1.64064
1297988608576,1.62440
1297988668576,1.62586
1297988728576,1.62722
1297988788576,1.63977
1297988848576,1.63080
1297988908576,1.63207
1297988968576,1.64561
1297989028576,1.63123
1297989088576,1.62857
1297989148576,1.63724
1297989208576,1.64128
1297989268576,1.63069
1297989328576,1.63316
1297989388576,1.64641
1297989448576,1.64229
1297989508576,1.63282
1297989568576,1.64801
1297989628576,1.63543
1297989688576,1.63762
1297989748576,1.63390
1297989808576,1.63803
1297989868576,1.64487
1297989928576,1.65533
1297989988576,1.64511
1297990048576,1.64942
1297990108576,1.65609
1297990168576,1.64384
1297990228576,1.63543
1297990288576,1.65158
1297990348576,1.63665
1297990408576,1.63613
1297990468576,1.66903
1297990528576,1.65137
1297990588576,1.63765
1297990648576,1.63666
1297990708576,1.64564
1297990768576,1.68883
1297990828587,1.63066
1297990888587,1.63421
1297990948587,1.62805
1297991008587,1.64059
1297991068587,1.64073
1297991128587,1.63747
1297991188587,1.65956
1297991248587,1.63084
1297991308587,1.63510
1297991368587,1.64032
1297991428587,1.63394
1297991488587,1.68278
1297991548587,1.64891
1297991608587,1.65249
1297991668587,1.64270
1297991728587,1.64332
1297991788587,1.64232
1297991848587,1.64518
1297991908587,1.64370
1297991968587,1.65151
1297992028587,1.64487
1297992088587,1.64027
1297992148587,1.64417
1297992208587,1.63946
1297992268587,1.66590
1297992328587,1.64675
1297992388587,1.64072
1297992448587,1.65607
1297992508587,1.65668
1297992568587,1.64926
1297992628587,1.65558
1297992688587,1.64356
1297992748587,1.63512
1297992808587,1.64284
1297992868587,1.65136
1297992928587,1.63710
1297992988587,1.64718
1297993048587,1.64383
1297993108587,1.63566
1297993168587,1.63287
1297993228587,1.62836
1297993288587,1.64708
1297993348587,1.62710
1297993408587,1.64647
1297993468587,1.63654
1297993528587,1.63287
1297993588587,1.62889
1297993648587,1.62801
1297993708587,1.63382
1297993768587,1.62666
1297993828587,1.63522
1297993888587,1.62218
1297993948587,1.63698
1297994008587,1.62837
1297994068587,1.62202
1297994128587,1.63239
1297994188587,1.62956
1297994248587,1.62210
1297994308587,1.62385
1297994368587,1.62617
1297994428598,1.62805
1297994488598,1.62373
1297994548598,1.62319
1297994608598,1.63018
1297994668598,1.63606
1297994728598,1.62977
1297994788598,1.63718
1297994848598,1.62086
1297994908598,1.63259
1297994968598,1.61595
1297995028598,1.61838
1297995088598,1.61808
1297995148598,1.62342
1297995208598,1.61787
1297995268598,1.63154
1297995328598,1.62834
1297995388598,1.62183
1297995448598,1.63012
1297995508598,1.62531
1297995568598,1.62656
1297995628598,1.61426
1297995688598,1.62894
1297995748598,1.61881
1297995808598,1.61915
1297995868598,1.63455
1297995928598,1.63561
1297995988598,1.62015
1297996048598,1.62633
1297996108598,1.63020
1297996168598,1.63946
1297996228598,1.62537
1297996288598,1.63563
1297996348598,1.63472
1297996408598,1.62042
1297996468598,1.62946
1297996528598,1.62981
1297996588598,1.62480
1297996648598,1.63113
1297996708598,1.63147
1297996768598,1.62396
1297996828598,1.62979
1297996888598,1.62346
1297996948598,1.63569
1297997008598,1.61096
1297997068598,1.63285
1297997128598,1.63010
1297997188598,1.62940
1297997248598,1.63513
1297997308598,1.64441
1297997368598,1.62462
1297997428598,1.61472
1297997488598,1.61333
1297997548598,1.61266
1297997608598,1.61345
1297997668598,1.62224
1297997728598,1.63579
1297997788598,1.63414
1297997848598,1.61827
1297997908598,1.64253
1297997968598,1.61652
1297998028610,1.63819
1297998088610,1.64039
1297998148610,1.64528
1297998208610,1.62202
1297998268610,1.62673
1297998328610,1.61817
1297998388610,1.63211
1297998448610,1.64046
1297998508610,1.66324
1297998568610,1.63796
1297998628610,1.63202
1297998688610,1.63160
1297998748610,1.63504
1297998808610,1.61559
1297998868610,1.62745
1297998928610,1.62808
1297998988610,1.63125
1297999048610,1.64524
1297999108610,1.62285
1297999168610,1.62597
1297999228610,1.62210
1297999288610,1.63578
1297999348610,1.63306
1297999408610,1.61914
1297999468610,1.63202
1297999528610,1.63395
1297999588610,1.63343
1297999648610,1.64838
1297999708610,1.64623
1297999768610,1.65061
1297999828610,1.73085
1297999888610,1.66273
1297999948610,1.66450
1298000008610,1.65752
1298000068610,1.65372
1298000128610,1.66695
1298000188610,1.66541
1298000248610,1.66707
1298000308610,1.65714
1298000368610,1.66047
1298000428610,1.65438
1298000488610,1.64652
1298000548610,1.65093
1298000608610,1.66448
1298000668610,1.65109
1298000728610,1.65549
1298000788610,1.66405
1298000848610,1.65228
1298000908610,1.65094
1298000968610,1.66179
1298001028610,1.66660
1298001088610,1.65362
1298001148610,1.64537
1298001208610,1.66582
1298001268610,1.66131
1298001328610,1.64834
1298001388610,1.66716
1298001448610,1.65507
1298001508610,1.65885
1298001568610,1.64689
1298001628621,1.66311
1298001688621,1.65960
1298001748621,1.65822
1298001808621,1.65852
1298001868621,1.65625
1298001928621,1.65112
1298001988621,1.66521
1298002048621,1.66703
1298002108621,1.66610
1298002168621,1.65720
1298002228621,1.66272
1298002288621,1.65795
1298002348621,1.66888
1298002408621,1.65981
1298002468621,1.65825
1298002528621,1.66926
1298002588621,1.66034
1298002648621,1.66388
1298002708621,1.67042
1298002768621,1.66450
1298002828621,1.67043
1298002888621,1.66679
1298002948621,1.67446
1298003008621,1.65854
1298003068621,1.65916
1298003128621,1.66489
1298003188621,1.65357
1298003248621,1.64613
1298003308621,1.67021
1298003368621,1.66207
1298003428621,1.66186
1298003488621,1.66511
1298003548621,1.65382
1298003608621,1.65948
1298003668621,1.66858
1298003728621,1.67158
1298003788621,1.65937
1298003848621,1.65769
1298003908621,1.67241
1298003968621,1.65732
1298004028621,1.65168
1298004088621,1.65291
1298004148621,1.65279
1298004208621,1.66755
1298004268621,1.66325
1298004328621,1.66178
1298004388621,1.65933
1298004448621,1.66784
1298004508621,1.66719
1298004568621,1.67892
1298004628621,1.68932
1298004688621,1.70424
1298004748621,1.68839
1298004808621,1.68729
1298004868621,1.72300
1298004928621,1.71380
1298004988621,1.73152
1298005048621,1.71761
1298005108621,1.72316
1298005168621,1.71927
1298005228632,1.70626
1298005288632,1.72505
1298005348632,1.71126
1298005408632,1.71479
1298005468632,1.72277
1298005528632,1.70971
1298005588632,1.70407
1298005648632,1.71140
1298005708632,1.70873
1298005768632,1.71640
1298005828632,1.70737
1298005888632,1.72791
1298005948632,1.71223
1298006008632,1.69191
1298006068632,1.70551
1298006128632,1.69729
1298006188632,1.69907
1298006248632,1.71338
1298006308632,1.70262
1298006368632,1.71091
1298006428632,1.71054
1298006488632,1.70194
1298006548632,1.70171
1298006608632,1.69921
1298006668632,1.70838
1298006728632,1.70285
1298006788632,1.70971
1298006848632,1.69838
1298006908632,1.70331
1298006968632,1.70036
1298007028632,1.70514
1298007088632,1.70653
1298007148632,1.73157
1298007208632,1.72612
1298007268632,1.71431
1298007328632,1.71124
1298007388632,1.71693
1298007448632,1.71224
1298007508632,1.72315
1298007568632,1.71258
1298007628632,1.70912
1298007688632,1.70458
1298007748632,1.69750
1298007808632,1.71172
1298007868632,1.71914
1298007928632,1.71658
1298007988632,1.70895
1298008048632,1.73005
1298008108632,1.69229
1298008168632,1.71294
1298008228632,1.72070
1298008288632,1.71644
1298008348632,1.71808
1298008408632,1.72316
1298008468632,1.72686
1298008528632,1.71550
1298008588632,1.70415
1298008648632,1.72383
1298008708632,1.71629
1298008768632,1.71777
1298008828644,1.72013
1298008888644,1.72872
1298008948644,1.73753
1298009008644,1.72241
1298009068644,1.74619
1298009128644,1.73672
1298009188644,1.73591
1298009248644,1.73012
1298009308644,1.72725
1298009368644,1.72534
1298009428644,1.73358
1298009488644,1.72314
1298009548644,1.72388
1298009608644,1.72570
1298009668644,1.71371
1298009728644,1.72252
1298009788644,1.72941
1298009848644,1.72177
1298009908644,1.72370
1298009968644,1.72738
1298010028644,1.73619
1298010088644,1.73228
1298010148644,1.73362
1298010208644,1.73081
1298010268644,1.73574
1298010328644,1.72577
1298010388644,1.72970
1298010448644,1.73371
1298010508644,1.72033
1298010568644,1.73460
1298010628644,1.73225
1298010688644,1.74756
1298010748644,1.75272
1298010808644,1.75855
1298010868644,1.79257
1298010928644,1.81652
1298010988644,1.79709
1298011048644,1.79488
1298011108644,1.76923
1298011168644,1.78831
1298011228644,1.79570
1298011288644,1.77851
1298011348644,1.78038
1298011408644,1.76193
1298011468644,1.77188
1298011528644,1.75867
1298011588644,1.75373
1298011648644,1.75449
1298011708644,1.74031
1298011768644,1.75205
1298011828644,1.74637
1298011888644,1.73945
1298011948644,1.75003
1298012008644,1.73230
1298012068644,1.74997
1298012128644,1.73938
1298012188644,1.74028
1298012248644,1.74134
1298012308644,1.73996
1298012368644,1.73509
1298012428656,1.73713
1298012488656,1.74895
1298012548656,1.72163
1298012608656,1.73653
1298012668656,1.72919
1298012728656,1.73823
1298012788656,1.72697
1298012848656,1.73441
1298012908656,1.72584
1298012968656,1.73390
1298013028656,1.73065
1298013088656,1.73472
1298013148656,1.72711
1298013208656,1.72872
1298013268656,1.72900
1298013328656,1.73129
1298013388656,1.73310
1298013448656,1.73946
1298013508656,1.73647
1298013568656,1.75163
1298013628656,1.75602
1298013688656,1.77001
1298013748656,1.76903
1298013808656,1.76508
1298013868656,1.75936
1298013928656,1.77140
1298013988656,1.78823
1298014048656,1.78384
1298014108656,1.78433
1298014168656,1.79083
1298014228656,1.81067
1298014288656,1.80308
1298014348656,1.81988
1298014408656,1.80571
1298014468656,1.81212
1298014528656,1.81060
1298014588656,1.80338
1298014648656,1.80515
1298014708656,1.81648
1298014768656,1.79939
1298014828656,1.80071
1298014888656,1.80592
1298014948656,1.80137
1298015008656,1.79848
1298015068656,1.79262
1298015128656,1.80077
1298015188656,1.80025
1298015248656,1.80387
1298015308656,1.80198
1298015368656,1.79917
1298015428656,1.80658
1298015488656,1.81080
1298015548656,1.81081
1298015608656,1.80922
1298015668656,1.81520
1298015728656,1.82617
1298015788656,1.80885
1298015848656,1.81604
1298015908656,1.82166
1298015968656,1.81563
1298016028667,1.82166
1298016088667,1.82952
1298016148667,1.81799
1298016208667,1.82281
1298016268667,1.82590
1298016328667,1.82270
1298016388667,1.81810
1298016448667,1.82406
1298016508667,1.82559
1298016568667,1.82633
1298016628667,1.82792
1298016688667,1.83732
1298016748667,1.82285
1298016808667,1.81856
1298016868667,1.84760
1298016928667,1.84082
1298016988667,1.84644
1298017048667,1.84704
1298017108667,1.84610
1298017168667,1.86133
1298017228667,1.85410
1298017288667,1.84545
1298017348667,1.85483
1298017408667,1.85146
1298017468667,1.85029
1298017528667,1.86048
1298017588667,1.84809
1298017648667,1.87180
1298017708667,1.85411
1298017768667,1.84345
1298017828667,1.86638
1298017888667,1.85155
1298017948667,1.85598
1298018008667,1.86812
1298018068667,1.85772
1298018128667,1.85116
1298018188667,1.85734
1298018248667,1.85366
1298018308667,1.85956
1298018368667,1.83444
1298018428667,1.84903
1298018488667,1.86286
1298018548667,1.84712
1298018608667,1.84509
1298018668667,1.84467
1298018728667,1.84779
1298018788667,1.84614
1298018848667,1.84733
1298018908667,1.83709
1298018968667,1.84143
1298019028667,1.83371
1298019088667,1.83745
1298019148667,1.83934
1298019208667,1.83720
1298019268667,1.83343
1298019328667,1.83235
1298019388667,1.83305
1298019448667,1.82752
1298019508667,1.83417
1298019568667,1.83659
1298019628679,1.83285
1298019688679,1.83989
1298019748679,1.81887
1298019808679,1.81703
1298019868679,1.83394
1298019928679,1.81298
1298019988679,1.82493
1298020048679,1.83421
1298020108679,1.82046
1298020168679,1.82130
1298020228679,1.82086
1298020288679,1.81819
1298020348679,1.80134
1298020408679,1.81307
1298020468679,1.90205
1298020528679,1.80811
1298020588679,1.82455
1298020648679,1.82235
1298020708679,1.80311
1298020768679,1.81528
1298020828679,1.80614
1298020888679,1.79702
1298020948679,1.80838
1298021008679,1.80706
1298021068679,1.87170
1298021128679,1.80766
1298021188679,1.80685
1298021248679,1.80477
1298021308679,1.80714
1298021368679,1.81261
1298021428679,1.80762
1298021488679,1.80904
1298021548679,1.79594
1298021608679,1.81899
1298021668679,1.81325
1298021728679,1.81066
1298021788679,1.81257
1298021848679,1.81388
1298021908679,1.81379
1298021968679,1.81035
1298022028679,1.81041
1298022088679,1.81306
1298022148679,1.81890
1298022208679,1.80982
1298022268679,1.80561
1298022328679,1.80684
1298022388679,1.80133
1298022448679,1.79005
1298022508679,1.81132
1298022568679,1.79690
1298022628679,1.79536
1298022688679,1.80194
1298022748679,1.78958
1298022808679,1.80919
1298022868679,1.80541
1298022928679,1.80061
1298022988679,1.81181
1298023048679,1.80991
1298023108679,1.80349
1298023168679,1.80650
1298023228691,1.81298
1298023288691,1.81518
1298023348691,1.82358
1298023408691,1.83276
1298023468691,1.82814
1298023528691,1.83888
1298023588691,1.84055
1298023648691,1.83720
1298023708691,1.83817
1298023768691,1.86860
1298023828691,1.86792
1298023888691,1.93727
1298023948691,2.05490
1298024008691,2.10145
1298024068691,2.00545
1298024128691,1.99350
1298024188691,1.97052
1298024248691,1.94325
1298024308691,1.92746
1298024368691,1.89886
1298024428691,1.87490
1298024488691,1.85978
1298024548691,1.86278
1298024608691,1.86315
1298024668691,1.86441
1298024728691,1.90128
1298024788691,1.92223
1298024848691,1.91725
1298024908691,1.89508
1298024968691,1.87453
1298025028691,1.86366
1298025088691,1.84747
1298025148691,1.84680
1298025208691,1.84023
1298025268691,1.85095
1298025328691,1.86497
1298025388691,1.86043
1298025448691,1.87048
1298025508691,1.88110
1298025568691,1.87080
1298025628691,1.85840
1298025688691,1.84012
1298025748691,1.87584
1298025808691,1.87231
1298025868691,1.87059
1298025928691,1.85143
1298025988691,1.86726
1298026048691,1.86751
1298026108691,1.84762
1298026168691,1.86628
1298026228691,1.87854
1298026288691,1.85233
1298026348691,1.87214
1298026408691,1.88130
1298026468691,1.87117
1298026528691,1.87358
1298026588691,1.88291
1298026648691,1.87218
1298026708691,1.89594
1298026768691,1.89568
1298026828703,1.89345
1298026888703,1.90934
1298026948703,1.88886
1298027008703,1.88249
1298027068703,1.88206
1298027128703,1.87140
1298027188703,1.89804
1298027248703,1.87562
1298027308703,1.85169
1298027368703,1.84708
1298027428703,1.85264
1298027488703,1.85337
1298027548703,1.86180
1298027608703,1.84855
1298027668703,1.86104
1298027728703,1.84623
1298027788703,1.85754
1298027848703,1.86626
1298027908703,1.85337
1298027968703,1.86859
1298028028703,1.87772
1298028088703,1.88061
1298028148703,1.86464
1298028208703,1.88932
1298028268703,1.89432
1298028328703,1.89960
1298028388703,1.91766
1298028448703,1.90677
1298028508703,1.89371
1298028568703,1.88919
1298028628703,1.88549
1298028688703,1.88348
1298028748703,1.87131
1298028808703,1.88933
1298028868703,1.86679
1298028928703,1.88219
1298028988703,1.87886
1298029048703,1.85953
1298029108703,1.85496
1298029168703,1.84433
1298029228703,1.84285
1298029288703,1.82727
1298029348703,1.83987
1298029408703,1.83011
1298029468703,1.84337
1298029528703,1.83021
1298029588703,1.84393
1298029648703,1.83554
1298029708703,1.84260
1298029768703,1.83107
1298029828703,1.83597
1298029888703,1.83382
1298029948703,1.81953
1298030008703,1.82754
1298030068703,1.82548
1298030128703,1.82107
1298030188703,1.82410
1298030248703,1.82654
1298030308703,1.82659
1298030368703,1.82083
1298030428715,1.82282
1298030488715,1.82482
1298030548715,1.82620
1298030608715,1.82025
1298030668715,1.81692
1298030728715,1.81343
1298030788715,1.81642
1298030848715,1.81840
1298030908715,1.80897
1298030968715,1.81740
1298031028715,1.80192
1298031088715,1.79984
1298031148715,1.90633
1298031208715,1.80662
1298031268715,1.80153
1298031328715,1.79638
1298031388715,1.80497
1298031448715,1.79706
1298031508715,1.79771
1298031568715,1.79880
1298031628715,1.80038
1298031688715,1.80834
1298031748715,1.80495
1298031808715,1.80310
1298031868715,1.80601
1298031928715,1.80452
1298031988715,1.80710
1298032048715,1.80270
1298032108715,1.79943
1298032168715,1.78568
1298032228715,1.79702
1298032288715,1.79649
1298032348715,1.79871
1298032408715,1.78808
1298032468715,1.80222
1298032528715,1.79486
1298032588715,1.79910
1298032648715,1.79268
1298032708715,1.79851
1298032768715,1.79166
1298032828715,1.78334
1298032888715,1.79301
1298032948715,1.78940
1298033008715,1.78944
1298033068715,1.80339
1298033128715,1.79441
1298033188715,1.80127
1298033248715,1.80623
1298033308715,1.78949
1298033368715,1.80407
1298033428715,1.79738
1298033488715,1.79312
1298033548715,1.79298
1298033608715,1.79818
1298033668715,1.80027
1298033728715,1.80824
1298033788715,1.80511
1298033848715,1.81624
1298033908715,1.80307
1298033968715,1.79922
1298034028727,1.80753
1298034088727,1.80495
1298034148727,1.81242
1298034208727,1.82443
1298034268727,1.86413
1298034328727,1.86777
1298034388727,1.87729
1298034448727,1.82093
1298034508727,1.84214
1298034568727,1.84071
1298034628727,1.82141
1298034688727,1.81049
1298034748727,1.81493
1298034808727,1.79974
1298034868727,1.80132
1298034928727,1.80105
1298034988727,1.79179
1298035048727,1.78749
1298035108727,1.79092
1298035168727,1.80079
1298035228727,1.79294
1298035288727,1.79086
1298035348727,1.80376
1298035408727,1.80563
1298035468727,1.80492
1298035528727,1.79337
1298035588727,1.78968
1298035648727,1.80143
1298035708727,1.80325
1298035768727,1.81210
1298035828727,1.81891
1298035888727,1.81134
1298035948727,1.81142
1298036008727,1.80056
1298036068727,1.81639
1298036128727,1.80925
1298036188727,1.81645
1298036248727,1.82428
1298036308727,1.81472
1298036368727,1.77745
1298036428727,1.82660
1298036488727,1.81536
1298036548727,1.82251
1298036608727,1.83731
1298036668727,1.83911
1298036728727,1.82906
1298036788727,1.83733
1298036848727,1.83178
1298036908727,1.85573
1298036968727,1.81823
1298037028727,1.82934
1298037088727,1.82136
1298037148727,1.82502
1298037208727,1.81026
1298037268727,1.82964
1298037328727,1.80390
1298037388727,1.81709
1298037448727,1.83377
1298037508727,1.81139
1298037568727,1.80964
1298037628738,1.80871
1298037688738,1.81229
1298037748738,1.80389
1298037808738,1.83042
1298037868738,1.81181
1298037928738,1.80503
1298037988738,1.84515
1298038048738,1.87134
1298038108738,1.86827
1298038168738,1.89558
1298038228738,1.87549
1298038288738,1.88273
1298038348738,1.87357
1298038408739,1.88488
1298038468739,1.85055
1298038528739,1.85706
1298038588739,1.86513
1298038648739,1.84946
1298038708739,1.83505
1298038768738,1.82040
1298038828738,1.79226
1298038888738,1.80878
1298038948738,1.81781
1298039008738,1.81121
1298039068738,1.79833
1298039128738,1.80473
1298039188738,1.80289
1298039248738,1.80942
1298039308738,1.81123
1298039368738,1.81727
1298039428738,1.81269
1298039488738,1.83539
1298039548738,1.82796
1298039608738,1.82872
1298039668738,1.82376
1298039728738,1.83291
1298039788739,1.82188
1298039848739,1.82769
1298039908739,1.82808
1298039968739,1.82619
1298040028739,1.83319
1298040088738,1.82368
1298040148738,1.80431
1298040208738,1.81080
1298040268738,1.81425
1298040328738,1.80267
1298040388738,1.81427
1298040448738,1.79981
1298040508738,1.80054
1298040568738,1.80771
1298040628738,1.79519
1298040688738,1.80785
1298040748738,1.81220
1298040808738,1.81429
1298040868738,1.81344
1298040928738,1.81547
1298040988738,1.81606
1298041048738,1.81768
1298041108739,1.82294
1298041168739,1.82065
1298041228750,1.81368
1298041288750,1.83020
1298041348750,1.82129
1298041408750,1.83750
1298041468750,1.83199
1298041528750,1.83669
1298041588750,1.83578
1298041648750,1.85005
1298041708750,1.84731
1298041768750,1.84617
1298041828750,1.84328
1298041888750,1.84604
1298041948750,1.84493
1298042008750,1.83872
1298042068750,1.84990
1298042128750,1.82992
1298042188750,1.84230
1298042248750,1.84630
1298042308750,1.83885
1298042368750,1.87439
1298042428750,1.83631
1298042488750,1.84360
1298042548750,1.84272
1298042608750,1.83511
1298042668750,1.83494
1298042728750,1.84267
1298042788750,1.84627
1298042848750,1.84078
1298042908750,1.85077
1298042968750,1.82135
1298043028750,1.81994
1298043088750,1.82964
1298043148750,1.83296
1298043208750,1.83388
1298043268750,1.83467
1298043328750,1.83104
1298043388750,1.83555
1298043448750,1.83297
1298043508750,1.83466
1298043568750,1.82833
1298043628750,1.84210
1298043688750,1.84856
1298043748750,1.83517
1298043808750,1.83538
1298043868750,1.82710
1298043928750,1.82990
1298043988750,1.82861
1298044048750,1.84012
1298044108750,1.82640
1298044168750,1.83318
1298044228750,1.83051
1298044288750,1.83856
1298044348750,1.83480
1298044408750,1.84402
1298044468750,1.84161
1298044528750,1.82592
1298044588750,1.85504
1298044648750,1.85636
1298044708750,1.84452
1298044768750,1.84530
1298044828762,1.82312
1298044888762,1.81935
1298044948762,1.82652
1298045008762,1.82631
1298045068762,1.81449
1298045128762,1.82499
1298045188762,1.82748
1298045248762,1.82878
1298045308762,1.83097
1298045368762,1.82380
1298045428762,1.84118
1298045488762,1.84397
1298045548762,1.82321
1298045608762,1.82295
1298045668762,1.81761
1298045728762,1.82322
1298045788762,1.81387
1298045848762,1.81738
1298045908762,1.80494
1298045968762,1.80991
1298046028762,1.80267
1298046088762,1.80585
1298046148762,1.81358
1298046208762,1.81569
1298046268762,1.80814
1298046328762,1.80953
1298046388762,1.80989
1298046448762,1.79840
1298046508762,1.79648
1298046568762,1.81054
1298046628762,1.79659
1298046688762,1.79654
1298046748762,1.80914
1298046808762,1.80961
1298046868762,1.80723
1298046928762,1.80217
1298046988762,1.79171
1298047048762,1.80014
1298047108762,1.82490
1298047168762,1.82152
1298047228762,1.81692
1298047288762,1.82541
1298047348762,1.82139
1298047408762,1.81526
1298047468762,1.81703
1298047528762,1.83324
1298047588762,1.84030
1298047648762,1.82484
1298047708762,1.80964
1298047768762,1.80749
1298047828762,1.80948
1298047888762,1.81270
1298047948762,1.80848
1298048008762,1.80812
1298048068762,1.81567
1298048128762,1.79151
1298048188762,1.77828
1298048248762,1.79665
1298048308762,1.78467
1298048368762,1.78853
1298048428773,1.78496
1298048488773,1.78043
1298048548773,1.77067
1298048608773,1.77901
1298048668773,1.76787
1298048728773,1.75815
1298048788773,1.76907
1298048848773,1.76610
1298048908773,1.76609
1298048968773,1.75782
1298049028773,1.76801
1298049088773,1.75439
1298049148773,1.76338
1298049208773,1.74876
1298049268773,1.76365
1298049328773,1.74646
1298049388773,1.76335
1298049448773,1.75531
1298049508773,1.74974
1298049568773,1.75109
1298049628773,1.75276
1298049688773,1.75426
1298049748773,1.74792
1298049808773,1.75006
1298049868773,1.73347
1298049928773,1.74657
1298049988773,1.75031
1298050048773,1.74054
1298050108773,1.74627
1298050168773,1.74427
1298050228773,1.74101
1298050288773,1.74227
1298050348773,1.74132
1298050408773,1.74567
1298050468773,1.73234
1298050528773,1.74636
1298050588773,1.74334
1298050648773,1.72489
1298050708773,1.73452
1298050768773,1.73942
1298050828773,1.73217
1298050888773,1.74351
1298050948773,1.75284
1298051008773,1.72542
1298051068773,1.74665
1298051128773,1.74114
1298051188773,1.75505
1298051248773,1.75335
1298051308773,1.76450
1298051368773,1.75624
1298051428773,1.75971
1298051488773,1.75265
1298051548773,1.75108
1298051608773,1.74774
1298051668773,1.73057
1298051728773,1.74890
1298051788773,1.76211
1298051848773,1.76278
1298051908773,1.76402
1298051968773,1.75998
1298052028784,1.76988
1298052088784,1.76430
1298052148784,1.75943
1298052208784,1.74436
1298052268784,1.76479
1298052328784,1.74542
1298052388784,1.75247
1298052448784,1.74295
1298052508784,1.74619
1298052568784,1.75286